Back to catalog

STARLINK-1123

AliveCommunicationsVLEO
NORAD 44930·PAYLOAD·🇺🇸 United States

Launched Jan 7, 2020 from Cape Canaveral Space Force Station

Loading…

Next Passes (next 24 hours)

TLE

FreshSource: CelesTrak SupGP

Epoch: Sep 14, 2026, 13:48 UTC

1 44930C 20001S   26257.57548611  .00094259  00000+0  72191-3 0  2570
2 44930  53.1368 154.9806 0001509 166.5891 187.2168 15.71402387    14

Track STARLINK-1123 in real time with AllMySat

Download on the App Store